GW2424 Weather Reports


time (UTC)temp
F
wind
direction
speed
knots
gust
knots
rain 1hr
in
rain 24hr
in
rain mn
in
humidity
%
barometer
mb
20260504044548 49 41 10.4 15.6 0.00 0.00 0.00 45 1013.2
20260504043054 50 32 15.6 21.7 0.00 0.00 0.00 44 1013.1
20260504041545 51 37 15.6 23.5 0.00 0.00 0.00 43 1012.7
20260504040051 52 22 11.3 15.6 0.00 0.00 0.00 45 1011.9
20260504034547 53 40 6.1 7.8 0.00 0.00 0.00 44 1011.3
20260504033051 53 54 5.2 7.8 0.00 0.00 0.00 44 1011.0
20260504031551 53 53 6.1 8.7 0.00 0.00 0.00 44 1010.9
20260504030054 54 49 7.0 10.4 0.00 0.00 0.00 43 1010.7
20260504024604 54 48 7.0 11.3 0.00 0.00 0.00 43 1010.5
20260504023057 56 53 7.0 13.0 0.00 0.00 0.00 41 1010.3
20260504021554 58 43 9.6 17.4 0.00 0.00 0.00 39 1010.0
20260504020050 60 34 9.6 16.5 0.00 0.00 0.00 35 1009.9
20260504014548 63 41 9.6 13.9 0.00 0.00 0.00 30 1009.7
20260504013054 65 8 7.8 13.0 0.00 0.00 0.00 27 1009.7
20260504011550 67 322 5.2 8.7 0.00 0.00 0.00 23 1009.7
20260504010047 68 307 3.5 9.6 0.00 0.00 0.00 21 1009.7
20260504004547 68 329 4.3 15.6 0.00 0.00 0.00 21 1009.8
20260504003053 68 314 5.2 13.0 0.00 0.00 0.00 20 1010.0
20260504001552 69 324 6.1 10.4 0.00 0.00 0.00 20 1010.1
20260504000116 69 345 7.8 14.8 0.00 0.00 0.00 20 1010.2
20260503234557 69 337 7.8 14.8 0.00 0.00 0.00 21 1010.1
20260503233047 69 307 6.1 13.9 0.00 0.00 0.00 21 1010.3
20260503231548 69 309 5.2 10.4 0.00 0.00 0.00 21 1010.5
20260503230051 69 299 7.8 13.0 0.00 0.00 0.00 21 1010.7
20260503224552 69 315 4.3 13.0 0.00 0.00 0.00 21 1010.8
20260503223051 69 277 7.8 13.0 0.00 0.00 0.00 20 1010.7
20260503221558 69 302 7.0 12.2 0.00 0.00 0.00 22 1011.1
20260503220057 68 320 6.1 13.0 0.00 0.00 0.00 21 1011.3
20260503214553 68 262 5.2 13.9 0.00 0.00 0.00 22 1011.5
20260503213052 67 13 5.2 14.8 0.00 0.00 0.00 23 1011.8
20260503211601 67 288 7.8 15.6 0.00 0.00 0.00 23 1012.0
20260503210052 67 316 7.8 18.2 0.00 0.00 0.00 24 1012.1
20260503204551 67 311 7.0 13.9 0.00 0.00 0.00 23 1012.2
20260503203107 67 318 6.1 13.0 0.00 0.00 0.00 24 1012.3
20260503201554 67 310 5.2 13.9 0.00 0.00 0.00 24 1012.3
20260503200048 66 294 5.2 11.3 0.00 0.00 0.00 23 1012.5
20260503194555 66 290 5.2 13.9 0.00 0.00 0.00 24 1012.7
20260503193053 66 297 9.6 16.5 0.00 0.00 0.00 24 1013.0
20260503191551 66 343 6.1 14.8 0.00 0.00 0.00 25 1013.4
20260503190050 65 311 6.1 13.9 0.00 0.00 0.00 26 1013.4
20260503184550 65 290 4.3 8.7 0.00 0.00 0.00 27 1013.4
20260503183052 63 308 5.2 11.3 0.00 0.00 0.00 29 1013.7
20260503181604 62 297 2.6 10.4 0.00 0.00 0.00 30 1013.8
20260503180052 63 302 4.3 12.2 0.00 0.00 0.00 28 1013.9
20260503174552 63 290 4.3 9.6 0.00 0.00 0.00 29 1014.1
20260503173057 62 303 4.3 8.7 0.00 0.00 0.00 31 1014.5
20260503171549 61 312 4.3 10.4 0.00 0.00 0.00 32 1014.4
20260503081549 47 150 3.5 7.0 0.00 0.00 0.00 66 1016.1